Temperature
7 7 7 7 7 7 7 7 7 7 7 7 7 6 6 6 6 6 5 5 5 5 5 4 4 4 4 3 3 3 2 2 2 2 3 3 2 2 2 2 2 2 2
7 7 7 7 7 7 7 7 7 7 7 7 6 6 6 6 6 5 5 5 5 4 4 4 4 4 3 3 3 3 2 2 1 1 2 2 2 2 2 2 2 2 2
6 6 6 6 6 6 6 6 6 6 6 6 6 6 6 5 5 5 5 5 4 4 4 4 3 3 3 3 2 2 2 1 1 1 1 1 1 1 1 2 2 2 2
6 6 6 6 6 6 6 6 6 6 6 6 5 5 5 5 5 5 4 4 4 4 4 3 3 3 3 2 2 2 1 1 0 0 0 0 0 0 0 0 1 1 1
5 6 6 6 5 5 5 5 5 5 5 5 5 5 5 5 5 4 4 4 4 4 3 3 3 3 3 2 2 1 1 0 0 -0 -0 -0 -0 -0 -0 -0 -0 0 1
5 5 5 5 5 5 5 5 5 5 5 5 5 4 4 4 4 4 4 4 3 3 3 3 3 3 2 2 1 1 1 0 -0 -0 -1 -1 -1 -1 -1 -1 -1 -1 -0
4 4 5 5 5 4 4 4 4 4 4 4 4 4 4 4 4 4 3 3 3 3 3 2 2 2 2 1 1 1 0 0 -0 -0 -1 -1 -1 -1 -1 -1 -1 -1 -1
4 4 4 4 4 4 4 4 4 4 4 4 4 4 4 3 3 3 3 3 3 2 2 2 2 2 1 1 1 1 0 0 -0 -0 -1 -1 -1 -1 -1 -1 -1 -1 -1
3 4 4 4 4 4 3 4 3 3 3 3 3 3 3 3 3 3 2 2 2 2 2 2 1 1 1 1 0 0 0 -0 -0 -0 -1 -1 -1 -1 -1 -1 -1 -1 -1
3 3 3 3 3 3 3 3 3 3 3 3 3 3 3 3 3 2 2 2 1 2 1 1 1 1 1 0 -0 -0 -0 -0 -1 -1 -1 -1 -1 -1 -1 -1 -2 -2 -2
3 3 3 3 3 3 3 3 3 2 2 2 2 2 2 2 2 2 1 1 1 1 1 1 1 1 0 0 -0 -0 -1 -1 -1 -1 -1 -1 -1 -1 -1 -2 -2 -2 -2
2 2 2 2 2 2 2 2 2 2 2 2 2 2 1 1 1 1 1 1 1 1 1 1 1 0 0 0 -0 -1 -1 -1 -1 -1 -1 -2 -2 -2 -2 -2 -2 -2 -2
1 2 1 1 1 1 1 1 1 1 1 1 1 1 1 1 0 0 0 0 0 0 0 0 0 -0 -0 -0 -1 -1 -1 -1 -2 -2 -2 -2 -2 -2 -2 -2 -2 -2 -2
1 1 1 1 1 1 1 1 1 1 1 1 0 0 0 0 -0 -0 -0 -0 -0 -0 -0 -0 -0 -0 -0 -1 -1 -1 -1 -2 -2 -2 -2 -2 -2 -2 -2 -2 -2 -2 -2
1 0 0 0 0 0 0 0 0 0 0 0 -0 -0 -0 -0 -0 -1 -1 -1 -1 -1 -1 -1 -1 -1 -1 -1 -1 -1 -2 -2 -2 -2 -3 -3 -3 -3 -3 -3 -3 -3 -3
-0 -0 -0 -0 -0 -0 -0 -0 -1 -0 -0 -0 -1 -1 -1 -1 -1 -1 -1 -1 -1 -1 -1 -1 -1 -2 -2 -2 -2 -2 -2 -2 -3 -3 -3 -3 -3 -3 -3 -3 -3 -3 -3
-0 -1 -1 -1 -1 -1 -1 -1 -1 -1 -1 -1 -1 -1 -1 -1 -1 -1 -1 -1 -1 -1 -2 -2 -2 -2 -2 -2 -2 -2 -2 -3 -3 -3 -3 -3 -3 -3 -3 -3 -3 -3 -3
-1 -1 -1 -1 -2 -2 -2 -2 -2 -2 -2 -2 -2 -2 -2 -2 -2 -2 -2 -2 -2 -2 -2 -2 -2 -3 -3 -3 -3 -3 -3 -3 -3 -3 -3 -3 -3 -3 -3 -3 -3 -3 -3
-2 -2 -2 -2 -2 -2 -2 -2 -2 -2 -2 -2 -2 -2 -2 -2 -2 -2 -2 -2 -2 -2 -3 -3 -3 -3 -3 -3 -3 -3 -3 -3 -3 -3 -3 -4 -4 -4 -4 -4 -4 -4 -4
-3 -3 -3 -3 -3 -3 -3 -3 -3 -3 -3 -3 -3 -3 -3 -3 -3 -3 -3 -3 -3 -3 -3 -3 -3 -3 -3 -3 -3 -3 -3 -3 -3 -4 -4 -4 -4 -4 -4 -4 -4 -4 -4
-3 -3 -3 -3 -3 -3 -3 -3 -3 -3 -3 -3 -3 -3 -3 -3 -3 -3 -3 -3 -3 -4 -3 -3 -3 -3 -4 -4 -4 -4 -4 -4 -4 -4 -4 -4 -4 -4 -4 -4 -4 -4 -4
-4 -4 -4 -4 -4 -3 -3 -4 -4 -4 -4 -4 -4 -4 -4 -4 -4 -4 -4 -4 -4 -4 -4 -4 -4 -4 -4 -4 -4 -4 -4 -4 -4 -4 -4 -4 -4 -4 -4 -4 -4 -4 -4
-4 -4 -4 -4 -4 -4 -4 -4 -4 -4 -4 -4 -4 -4 -4 -4 -4 -4 -4 -4 -4 -4 -4 -4 -4 -4 -4 -4 -4 -4 -4 -4 -4 -4 -4 -4 -4 -4 -4 -4 -4 -4 -4
-5 -5 -5 -4 -4 -4 -4 -4 -4 -4 -5 -5 -5 -5 -4 -4 -4 -4 -4 -4 -4 -4 -4 -4 -4 -4 -4 -4 -4 -4 -4 -4 -4 -4 -4 -4 -4 -4 -4 -4 -4 -4 -4
-5 -5 -5 -5 -5 -5 -5 -5 -5 -5 -5 -5 -5 -5 -5 -5 -5 -5 -5 -5 -5 -5 -5 -5 -5 -4 -4 -4 -4 -4 -4 -4 -4 -4 -4 -4 -4 -4 -4 -4 -4 -4 -4
-6 -6 -5 -5 -5 -5 -5 -5 -5 -5 -5 -5 -5 -5 -5 -5 -5 -5 -5 -5 -5 -5 -5 -5 -5 -5 -5 -4 -4 -4 -4 -4 -4 -4 -4 -4 -4 -4 -4 -4 -4 -4 -4
Wind_Speed
7 7 8 7 7 7 6 6 5 5 5 5 5 4 4 3 3 3 3 3 4 4 4 5 5 6 5 5 5 6 7 7 11 12 11 12 14 13 12 13 14 13 13
6 6 7 7 7 6 6 6 5 5 5 5 4 4 4 3 3 3 3 4 4 5 5 6 6 5 6 6 6 7 7 8 10 13 12 12 14 13 13 13 12 12 12
5 5 6 7 7 6 6 5 5 5 5 4 4 4 3 3 3 3 4 4 4 5 5 6 6 6 7 6 7 7 7 8 8 10 12 11 11 11 12 12 13 11 12
4 4 5 6 6 6 6 5 5 5 5 4 4 3 3 3 3 3 3 4 5 5 5 6 7 7 7 8 7 8 8 8 9 9 10 10 10 11 10 11 11 11 11
3 3 4 5 5 5 5 5 5 4 4 4 3 3 3 2 3 3 3 4 4 5 5 6 6 7 8 8 7 8 8 8 8 8 9 9 9 10 10 10 11 12 12
2 2 3 4 5 5 5 5 4 4 4 3 3 3 3 2 2 3 4 4 4 5 5 6 6 7 7 9 10 10 10 9 9 9 9 10 11 11 10 10 10 11 9
2 2 3 4 4 5 5 5 4 4 4 3 3 3 3 2 2 3 4 3 4 4 5 6 5 6 7 7 8 9 10 11 11 10 11 11 11 11 11 11 11 11 10
2 2 2 3 4 4 5 4 4 4 3 3 3 3 2 2 2 3 3 3 4 4 5 6 6 7 6 7 8 8 9 9 9 9 9 11 11 11 10 10 10 10 9
1 1 2 3 4 4 4 4 4 3 3 2 2 2 2 2 1 2 3 3 3 4 5 5 6 6 7 9 8 8 9 8 8 9 11 11 12 12 10 7 7 7 7
1 1 2 3 3 4 4 4 3 3 3 2 2 2 2 2 1 2 3 2 3 4 4 5 5 7 8 9 7 7 8 9 9 9 8 8 8 8 9 7 6 6 6
0 1 1 2 3 3 3 3 3 2 2 2 1 1 1 1 1 2 3 3 3 4 4 4 4 7 8 9 8 7 8 9 8 7 7 7 7 6 6 6 6 5 6
1 1 2 2 2 2 3 2 3 3 2 1 1 0 0 1 1 2 3 4 4 4 4 4 4 6 8 8 7 7 9 8 5 5 5 6 6 6 6 7 7 6 5
2 2 2 2 2 2 2 2 3 2 2 1 1 0 1 1 1 2 3 3 4 3 3 5 6 7 7 5 6 7 6 4 4 5 5 6 6 6 6 6 7 6 6
2 2 2 2 2 2 2 2 2 2 2 1 1 0 1 1 1 2 2 2 3 3 3 4 5 5 5 5 5 5 4 4 4 4 5 5 5 5 6 6 6 6 5
2 2 2 2 2 2 2 1 0 0 1 1 1 1 1 1 2 3 3 3 3 3 3 3 3 3 3 4 4 4 4 4 4 4 5 5 5 5 6 6 6 6 5
2 2 2 2 2 2 2 2 3 2 2 2 1 1 1 2 3 3 3 4 4 3 2 2 2 3 3 4 4 5 4 5 5 5 4 4 5 5 6 6 5 5 5
2 2 2 2 2 2 2 2 2 3 3 3 3 3 2 2 2 2 3 3 3 2 2 2 2 3 3 4 4 4 5 5 5 4 4 5 5 5 5 5 5 5 5
2 2 2 2 1 1 1 1 1 1 1 2 3 3 4 4 3 3 3 3 2 2 2 2 3 3 3 4 4 4 5 5 4 4 4 5 5 5 5 5 5 6 6
2 2 2 2 1 1 1 1 1 1 1 1 2 2 4 4 4 4 3 2 1 2 2 2 3 3 4 4 4 4 4 4 4 4 4 5 5 5 5 5 5 7 6
2 2 2 1 1 1 1 1 1 1 1 1 1 1 2 2 2 2 2 2 2 2 2 3 3 4 4 4 4 4 4 4 4 4 4 4 4 4 5 6 6 6 5
2 2 2 1 1 1 1 1 1 1 1 1 1 2 2 2 1 2 2 2 2 3 3 3 3 4 4 4 4 4 5 4 4 4 4 4 4 4 5 5 5 5 5
1 1 1 1 1 1 1 1 1 1 1 1 1 2 3 2 2 2 2 2 3 3 3 3 4 4 4 4 4 4 4 4 4 4 4 4 4 4 5 4 4 4 4
2 2 1 1 1 2 2 1 1 1 1 1 1 1 2 2 2 2 3 3 3 3 3 4 4 4 4 5 5 4 4 5 5 5 5 5 4 4 4 4 5 5 4
1 2 2 1 1 1 1 1 1 1 1 1 1 2 2 2 2 3 3 3 3 4 4 4 4 5 7 6 5 5 5 6 6 6 6 5 4 4 4 4 4 4 4
1 1 1 1 1 1 1 1 1 1 1 1 1 2 2 2 3 3 3 3 4 4 5 5 5 5 7 7 7 6 7 8 8 6 5 3 4 4 4 4 3 3 3
1 1 1 1 1 1 1 1 0 1 1 1 2 2 2 3 3 3 3 3 4 4 5 5 6 7 8 7 7 8 8 7 7 6 4 3 3 3 3 3 3 3 3
Wind_Direction
182 182 182 183 184 186 187 189 186 181 182 186 189 191 196 206 215 225 241 249 259 271 274 277 282 283 282 281 279 274 273 275 281 291 300 307 309 310 313 315 312 311 309
179 179 181 177 179 183 185 185 182 180 181 185 186 191 199 209 220 232 246 252 262 272 278 281 284 284 282 284 284 280 279 279 282 290 299 307 309 311 313 314 316 313 310
172 174 176 176 178 183 183 181 180 179 179 182 187 196 205 215 227 240 253 257 263 271 276 279 283 285 285 287 288 286 285 285 284 288 296 303 306 311 316 315 316 314 314
167 171 177 180 181 182 179 178 179 180 180 183 192 201 210 220 230 244 257 263 269 276 277 278 280 281 284 289 290 291 293 294 293 292 294 301 307 314 316 318 318 319 317
166 172 181 181 178 174 173 175 176 179 182 184 190 198 209 220 230 252 265 267 272 280 283 282 281 285 290 290 291 296 298 295 296 295 296 303 308 316 316 316 314 317 316
164 173 172 172 173 173 173 172 174 177 179 182 190 199 212 226 243 265 276 268 272 277 286 291 291 287 291 291 293 296 296 292 294 294 295 299 305 309 312 313 315 316 315
153 160 169 171 175 175 173 174 179 179 180 187 195 202 221 238 243 264 281 277 274 279 286 294 299 299 298 297 298 298 295 288 284 285 289 296 301 307 310 311 311 309 306
158 164 173 171 173 176 177 181 185 184 184 191 201 209 229 247 253 275 287 278 281 285 286 290 296 304 308 308 307 305 303 300 298 295 294 297 301 304 305 302 302 303 302
173 183 180 178 175 180 185 184 183 182 186 195 206 212 234 252 260 290 295 284 284 291 294 293 296 300 311 314 311 307 308 311 313 307 306 307 311 312 315 312 314 315 313
200 197 182 183 182 187 188 180 176 179 186 189 203 216 232 252 271 287 295 280 286 295 299 298 299 304 312 314 310 308 308 314 319 319 318 321 322 325 330 324 314 310 311
179 154 159 173 180 179 173 168 163 164 170 181 194 220 237 263 254 270 290 286 286 294 300 304 307 313 315 313 311 305 308 314 314 318 321 325 329 332 335 332 324 311 306
129 132 140 152 159 166 158 153 155 156 162 170 169 169 303 295 295 292 298 306 310 298 302 308 315 321 321 318 316 320 321 318 316 321 325 328 330 331 330 328 324 318 305
126 126 127 127 134 148 148 147 152 155 161 162 158 176 322 324 322 324 325 328 330 320 315 325 325 323 322 322 335 336 331 326 325 325 326 327 326 321 322 324 324 321 314
133 125 123 123 122 122 124 136 149 160 163 163 170 214 306 322 330 333 324 322 328 327 324 330 335 338 338 340 339 341 339 332 326 322 322 323 326 330 332 331 327 331 332
128 125 125 121 120 115 105 100 137 180 198 187 204 220 256 294 321 331 328 325 320 320 330 338 345 345 347 347 343 342 339 337 336 330 326 328 331 333 333 333 328 330 332
134 131 125 120 118 116 108 80 58 55 40 27 18 324 319 328 331 337 342 346 348 354 353 349 343 339 338 336 334 335 336 337 334 330 327 328 330 330 331 334 334 334 334
142 138 132 130 132 133 127 116 89 64 66 70 64 41 29 21 13 359 2 11 18 23 13 356 338 333 332 330 327 326 328 330 328 326 327 327 326 326 329 333 336 334 333
130 131 134 140 144 147 143 133 125 109 79 53 44 46 41 35 26 19 27 35 34 29 6 343 332 328 325 322 322 325 326 328 327 327 328 327 325 326 328 330 331 332 330
120 128 127 129 136 139 134 127 116 107 89 59 36 34 33 30 28 28 31 30 18 352 339 330 322 320 318 316 315 318 320 321 324 325 326 326 325 325 325 325 325 327 328
112 110 114 127 134 130 127 122 110 97 82 66 34 15 7 6 15 14 12 3 352 337 327 321 317 315 315 312 312 316 318 319 322 322 321 320 319 319 319 320 323 326 327
112 117 110 114 121 124 124 120 112 105 87 49 15 4 354 354 357 352 349 343 335 326 320 318 316 313 309 307 308 310 311 314 316 314 313 313 316 318 318 317 318 322 325
118 123 117 113 112 107 99 88 88 85 75 52 24 12 7 9 357 342 334 330 328 321 316 312 310 311 308 305 304 304 304 305 308 309 309 310 312 314 316 317 320 326 329
123 118 108 106 107 105 87 77 70 64 50 33 20 8 359 352 340 334 330 325 323 319 317 313 310 312 318 314 307 299 293 295 299 301 301 303 307 310 311 313 318 321 327
119 120 117 115 105 101 93 80 65 56 44 27 12 358 347 339 333 329 325 322 321 320 320 317 313 310 313 316 312 305 298 298 299 294 289 288 296 303 309 314 315 318 323
108 114 114 113 106 101 98 89 68 47 27 4 350 342 336 331 328 327 325 324 323 320 321 320 318 316 313 312 311 309 307 305 303 303 296 291 296 303 308 312 315 321 326
103 108 103 107 110 109 106 94 46 7 348 338 331 325 323 321 322 321 321 323 323 322 322 322 320 318 316 315 314 315 314 314 314 315 309 297 297 302 310 313 315 318 321
Height
1470 1473 1476 1478 1481 1483 1484 1486 1488 1489 1490 1491 1492 1493 1493 1493 1493 1493 1493 1492 1491 1490 1489 1487 1486 1484 1482 1480 1477 1475 1473 1470 1464 1458 1456 1453 1449 1445 1441 1437 1433 1429 1424
1467 1470 1472 1475 1477 1479 1481 1483 1485 1486 1487 1488 1489 1490 1490 1490 1490 1490 1489 1489 1488 1486 1485 1484 1482 1480 1478 1476 1473 1471 1468 1466 1462 1455 1451 1448 1445 1441 1437 1433 1429 1425 1421
1465 1467 1469 1472 1474 1476 1478 1480 1481 1483 1484 1485 1486 1486 1487 1487 1487 1487 1486 1485 1484 1483 1481 1480 1478 1476 1474 1472 1469 1467 1464 1461 1458 1453 1448 1444 1441 1437 1433 1428 1425 1420 1416
1462 1464 1466 1469 1471 1473 1475 1477 1478 1479 1481 1482 1483 1483 1484 1484 1484 1483 1482 1481 1480 1479 1477 1476 1474 1472 1469 1467 1465 1462 1460 1457 1454 1450 1445 1441 1437 1434 1430 1424 1419 1416 1412
1460 1462 1464 1466 1468 1470 1472 1474 1475 1476 1477 1479 1479 1480 1480 1480 1480 1480 1479 1478 1476 1475 1474 1472 1470 1468 1465 1463 1461 1458 1455 1452 1449 1446 1442 1438 1434 1430 1427 1422 1417 1412 1409
1458 1459 1461 1463 1465 1467 1469 1470 1472 1473 1474 1475 1476 1476 1477 1477 1477 1476 1476 1474 1473 1471 1470 1468 1466 1464 1461 1459 1457 1454 1452 1449 1446 1443 1439 1435 1431 1428 1424 1420 1415 1411 1405
1456 1457 1459 1461 1462 1464 1466 1467 1468 1469 1470 1471 1472 1473 1473 1473 1473 1473 1472 1471 1469 1468 1466 1464 1462 1460 1458 1455 1453 1450 1448 1445 1443 1440 1436 1432 1429 1425 1421 1417 1414 1409 1405
1454 1455 1456 1458 1459 1461 1463 1464 1465 1466 1467 1468 1469 1469 1470 1470 1470 1469 1468 1467 1466 1464 1463 1461 1459 1456 1454 1452 1449 1446 1444 1441 1439 1436 1433 1429 1426 1423 1419 1416 1411 1407 1403
1451 1453 1454 1455 1457 1458 1459 1460 1462 1463 1464 1465 1466 1466 1466 1466 1466 1466 1465 1463 1462 1461 1459 1457 1455 1453 1451 1449 1446 1443 1440 1437 1435 1432 1429 1426 1423 1420 1416 1413 1408 1404 1400
1449 1450 1451 1453 1454 1455 1456 1457 1459 1460 1461 1462 1462 1463 1463 1463 1463 1462 1461 1460 1458 1457 1456 1454 1452 1450 1448 1446 1443 1440 1437 1434 1431 1428 1426 1423 1420 1417 1414 1411 1407 1403 1399
1447 1448 1449 1450 1451 1452 1454 1455 1456 1457 1458 1459 1459 1460 1460 1460 1459 1459 1458 1457 1455 1454 1452 1450 1449 1447 1445 1443 1440 1438 1435 1432 1429 1426 1423 1420 1417 1414 1411 1408 1405 1402 1399
1445 1446 1447 1448 1449 1450 1451 1452 1453 1454 1455 1456 1456 1456 1457 1457 1456 1455 1455 1454 1453 1451 1449 1447 1446 1444 1442 1440 1437 1435 1432 1430 1426 1423 1420 1417 1414 1412 1409 1406 1403 1401 1398
1443 1444 1445 1446 1447 1448 1449 1450 1451 1451 1452 1453 1453 1453 1454 1454 1453 1453 1452 1451 1450 1449 1447 1445 1443 1441 1439 1437 1435 1432 1430 1427 1425 1422 1419 1416 1413 1410 1407 1404 1401 1399 1396
1442 1443 1444 1444 1445 1446 1447 1448 1448 1449 1449 1450 1451 1451 1451 1451 1450 1450 1449 1448 1447 1446 1444 1442 1441 1439 1437 1435 1432 1430 1428 1426 1423 1420 1417 1415 1412 1409 1406 1403 1400 1397 1394
1440 1441 1442 1443 1443 1444 1445 1446 1447 1448 1448 1449 1449 1449 1448 1448 1448 1448 1447 1446 1445 1443 1442 1440 1438 1436 1434 1433 1431 1429 1426 1424 1422 1419 1416 1413 1411 1408 1405 1403 1400 1397 1394
1439 1439 1440 1441 1441 1442 1443 1444 1445 1446 1447 1447 1448 1448 1447 1447 1446 1446 1445 1444 1443 1441 1440 1438 1436 1434 1433 1431 1429 1427 1425 1423 1420 1418 1415 1413 1410 1408 1405 1402 1400 1397 1394
1437 1438 1439 1440 1440 1441 1442 1442 1443 1444 1445 1446 1446 1446 1445 1445 1444 1443 1443 1442 1440 1439 1438 1436 1435 1433 1431 1429 1427 1425 1423 1421 1419 1417 1414 1412 1410 1407 1405 1402 1400 1397 1395
1436 1437 1438 1439 1439 1440 1441 1441 1442 1442 1442 1443 1444 1444 1443 1443 1442 1441 1441 1440 1438 1437 1436 1435 1433 1431 1430 1428 1426 1424 1422 1420 1418 1416 1414 1411 1409 1407 1404 1402 1400 1398 1395
1435 1436 1437 1438 1438 1439 1440 1440 1441 1441 1441 1441 1441 1442 1441 1441 1440 1440 1439 1438 1436 1435 1434 1433 1431 1430 1428 1427 1425 1423 1421 1419 1417 1415 1413 1411 1409 1407 1404 1402 1400 1398 1396
1434 1435 1436 1437 1437 1438 1439 1439 1440 1440 1440 1440 1440 1440 1439 1439 1438 1438 1437 1436 1435 1434 1433 1431 1430 1428 1427 1425 1423 1421 1419 1418 1416 1414 1412 1410 1408 1406 1404 1402 1400 1398 1396
1433 1434 1435 1435 1436 1437 1438 1438 1438 1439 1439 1439 1439 1439 1439 1438 1437 1436 1435 1434 1433 1432 1431 1430 1428 1427 1425 1423 1422 1420 1418 1416 1415 1413 1411 1409 1408 1406 1404 1402 1400 1398 1396
1432 1432 1433 1434 1435 1436 1436 1437 1437 1437 1437 1437 1437 1437 1437 1437 1436 1435 1434 1433 1432 1431 1430 1428 1427 1425 1424 1422 1420 1418 1417 1415 1413 1412 1410 1409 1407 1405 1404 1402 1400 1398 1396
1431 1432 1432 1433 1434 1435 1435 1436 1436 1436 1436 1436 1436 1436 1435 1435 1434 1433 1433 1431 1430 1429 1428 1426 1425 1423 1422 1420 1419 1417 1415 1414 1412 1411 1409 1407 1406 1404 1403 1402 1400 1398 1396
1430 1431 1432 1432 1433 1434 1434 1435 1435 1435 1435 1435 1435 1434 1434 1433 1433 1432 1431 1430 1429 1428 1426 1425 1423 1422 1420 1419 1417 1416 1414 1413 1411 1409 1408 1406 1405 1404 1403 1401 1400 1398 1397
1430 1431 1431 1432 1432 1433 1433 1433 1434 1434 1434 1434 1433 1433 1433 1432 1431 1430 1429 1428 1427 1426 1424 1423 1422 1420 1418 1417 1415 1414 1412 1411 1410 1408 1407 1406 1404 1403 1402 1401 1399 1398 1397
1429 1430 1430 1431 1431 1432 1432 1432 1432 1432 1432 1432 1432 1432 1431 1431 1430 1429 1428 1427 1425 1424 1422 1421 1420 1418 1416 1415 1413 1412 1411 1410 1408 1407 1406 1405 1404 1403 1401 1400 1399 1398 1397